Wind_Speed
16 13 11 9 9 8 8 7 7 7 7 8 7 7 7 8 10 9 7 6 3 5 11 8 3 3 2 3 3 3 5 1 3 2 3 4 9 6 4 2 1 3 4 4 26
20 17 13 10 8 8 8 7 7 7 7 7 6 6 6 7 9 10 5 8 12 12 7 5 3 3 3 2 2 5 4 9 4 2 4 4 3 4 5 1 3 2 5 22 26
21 19 15 11 8 8 7 7 7 7 5 5 5 5 4 6 2 5 3 15 16 9 6 7 8 3 3 2 1 2 5 5 4 7 5 3 5 3 2 3 7 6 12 14 20
24 20 18 14 9 7 7 6 6 6 4 3 3 3 2 3 1 2 2 17 13 9 7 4 5 4 3 2 1 1 3 4 5 3 3 4 2 3 6 7 3 5 16 14 14
24 21 18 18 11 7 6 4 4 4 3 3 3 2 0 1 6 7 11 17 12 11 9 4 4 3 3 2 0 2 3 4 8 9 5 4 5 3 7 10 3 10 13 13 13
26 24 17 16 13 8 5 5 4 3 2 4 4 4 1 2 4 1 15 16 10 10 7 6 6 4 3 2 2 5 3 6 6 5 2 1 4 1 4 3 4 10 13 13 15
28 26 18 13 13 8 7 6 5 3 3 4 5 2 1 8 3 4 15 10 9 9 5 5 5 2 3 3 3 2 4 6 2 2 2 2 7 2 5 3 7 8 8 13 13
31 28 21 12 10 7 6 6 5 3 3 5 5 1 5 3 4 10 12 6 6 7 2 3 5 3 2 1 6 4 5 4 4 6 2 4 6 3 6 2 8 8 5 5 9
34 31 23 14 7 7 4 4 3 3 4 6 1 1 7 4 3 8 12 2 8 7 5 2 2 3 4 4 5 7 1 3 8 3 1 4 6 6 12 10 8 10 6 8 7
35 33 25 14 8 7 3 1 3 3 3 0 1 2 4 2 3 7 12 6 3 5 2 3 5 3 4 5 2 2 3 4 4 2 7 3 6 7 8 8 9 12 9 6 7
36 35 26 13 7 4 2 4 3 2 2 6 4 3 4 4 3 4 8 7 1 5 3 1 4 4 6 5 4 2 2 3 6 5 1 3 1 8 11 14 17 13 9 8 6
38 36 26 11 3 3 4 3 2 4 7 11 6 5 6 2 4 3 13 5 3 4 2 5 4 8 3 3 3 3 2 7 7 3 4 5 3 5 9 7 10 11 10 8 7
40 38 23 8 3 6 3 3 12 0 2 7 5 5 5 11 7 6 10 5 3 5 5 6 6 6 5 4 3 4 4 5 8 7 2 1 3 4 2 5 12 13 10 12 11
41 36 18 4 5 1 2 11 10 3 4 6 4 6 5 7 4 9 15 7 3 11 8 5 4 6 4 4 7 4 8 7 5 3 3 2 4 2 5 6 10 12 14 14 13
42 29 13 2 3 2 6 13 4 3 4 2 2 7 4 9 5 5 7 4 9 7 7 8 6 5 3 7 6 9 2 4 3 4 3 1 4 5 4 5 6 10 10 11 11
41 20 10 5 4 6 14 8 2 5 4 3 4 5 4 4 2 4 4 4 4 5 2 7 2 5 8 4 7 2 2 6 4 3 1 3 5 4 3 3 4 5 7 9 9
38 12 10 6 5 14 12 3 5 3 5 5 3 2 6 5 3 4 6 6 7 5 5 3 5 3 4 2 2 4 5 3 4 3 5 3 3 5 4 2 2 0 3 5 5
30 7 10 25 13 12 4 5 2 3 4 4 5 6 5 2 2 3 5 4 3 4 3 6 5 7 4 8 8 5 8 5 5 4 4 2 4 4 4 5 4 3 0 1 3
25 6 12 28 11 9 6 3 5 1 5 7 8 2 1 2 2 2 1 3 2 7 8 5 6 4 2 3 6 5 3 3 7 4 2 3 3 4 4 6 5 6 4 4 5
16 8 10 27 6 4 5 4 2 1 5 3 2 2 2 4 2 3 2 1 3 2 4 2 2 2 4 3 6 4 5 3 2 3 4 3 3 5 10 12 9 9 9 7 6
8 4 18 23 4 5 2 3 4 3 5 3 2 3 3 2 1 2 2 2 0 1 4 3 4 4 0 4 9 3 2 6 4 4 5 2 5 6 11 12 15 14 12 11 8
7 3 22 20 4 2 1 5 5 5 4 4 3 2 2 2 2 4 7 6 1 1 2 1 4 4 8 3 2 1 6 6 5 5 1 2 6 3 6 9 10 10 10 10 7
3 3 13 11 3 4 6 5 3 7 6 6 4 5 3 3 3 4 2 3 8 2 4 4 0 1 7 5 3 3 4 4 5 4 7 5 5 1 4 5 7 7 7 8 8
3 5 4 5 2 3 5 4 5 6 0 5 5 7 6 4 3 4 2 3 8 6 4 4 5 7 7 6 4 3 4 4 5 4 5 7 4 5 7 10 9 9 8 8 8
4 1 2 5 4 4 2 4 5 6 5 8 3 8 4 4 5 3 6 7 6 8 4 2 7 6 7 9 6 7 6 10 8 7 8 6 11 8 11 13 13 10 6 7 8
3 4 5 3 4 5 5 5 6 5 4 4 4 13 6 3 1 5 7 3 5 5 5 5 4 5 5 7 8 10 8 12 11 4 6 6 7 8 6 5 6 12 13 13 11
6 3 2 4 5 3 2 7 6 6 6 3 11 7 6 5 12 12 13 10 10 6 4 2 1 2 5 5 2 9 9 9 6 5 7 9 11 5 6 8 9 10 14 14 12
Wind_Direction
4 352 338 327 318 313 304 292 288 282 274 276 281 281 275 277 282 277 242 226 179 204 144 148 135 94 72 71 62 119 65 157 247 217 244 333 14 308 290 68 24 120 169 168 146
8 359 348 335 320 311 304 293 286 280 271 270 276 286 286 290 293 256 248 182 151 139 136 121 115 105 48 47 39 87 103 213 226 258 286 265 180 291 354 10 277 41 56 130 144
15 8 358 347 330 313 304 295 285 282 270 262 270 295 297 313 288 248 74 165 158 154 98 108 119 88 70 21 89 168 174 206 270 240 255 269 311 223 171 262 235 199 153 150 157
20 14 11 358 339 324 313 303 296 287 265 240 252 288 296 323 109 27 229 168 176 163 147 114 48 59 75 68 164 43 222 200 266 258 293 281 232 176 185 242 304 176 162 157 170
23 16 10 6 356 341 333 329 322 304 259 205 192 191 319 316 255 344 158 162 161 166 155 120 89 126 110 200 30 177 269 192 278 293 254 310 266 201 236 259 11 136 160 178 188
20 17 10 9 9 12 17 6 355 349 192 179 175 163 104 300 337 303 166 164 160 149 154 155 167 186 118 223 163 203 242 279 281 294 246 290 326 139 328 239 169 160 185 184 192
16 14 10 7 10 15 25 26 30 58 130 159 160 148 119 234 300 166 172 178 172 170 152 195 141 117 174 349 288 288 318 335 1 358 339 197 346 240 292 297 252 218 194 189 201
12 9 8 1 2 1 12 23 36 75 121 142 148 120 243 269 303 187 181 171 179 182 178 157 196 111 125 282 10 29 53 42 299 338 345 93 290 304 349 291 307 288 197 224 217
8 5 2 359 344 340 328 355 42 78 116 134 101 68 274 302 238 205 192 139 172 180 183 127 98 83 29 71 15 10 27 348 326 18 67 53 283 52 3 19 357 339 248 211 222
5 1 359 354 341 331 305 83 112 95 129 62 308 351 271 239 200 188 192 136 140 131 78 82 50 70 42 65 256 325 351 321 279 278 18 350 271 350 10 8 12 358 353 241 229
1 357 355 350 344 342 148 126 6 5 207 211 197 228 281 310 151 171 170 148 87 68 134 43 80 202 228 187 157 156 199 267 270 240 232 273 271 14 332 20 10 3 4 15 334
358 354 352 347 0 89 117 94 37 261 300 237 236 258 246 37 350 128 155 135 133 182 98 23 268 227 152 141 169 189 267 279 283 294 153 264 174 149 25 24 11 13 22 19 24
357 351 351 346 140 137 148 54 344 214 313 294 191 204 196 152 212 232 147 129 147 146 180 168 223 110 151 169 187 199 192 249 218 346 271 96 334 11 33 53 10 17 17 31 43
356 351 352 2 145 99 140 342 344 142 41 276 265 261 141 151 237 187 170 141 189 197 156 217 255 227 190 235 153 273 211 238 245 111 231 108 262 285 328 358 28 11 20 18 21
356 352 3 43 68 81 331 336 344 85 357 239 203 158 154 163 161 199 175 78 175 182 127 238 190 175 160 217 151 225 264 208 238 180 114 298 105 260 358 333 14 18 20 19 27
356 358 10 46 63 358 337 333 94 45 261 348 133 160 146 240 237 121 136 77 138 121 328 231 248 163 213 241 170 237 96 43 54 96 132 198 141 271 263 260 318 13 26 25 33
356 7 33 34 338 337 339 53 39 148 321 332 347 358 204 200 224 170 157 175 177 129 226 300 241 251 171 248 79 92 69 323 333 358 225 126 110 236 196 193 244 283 45 44 31
357 29 65 15 353 349 19 53 184 282 317 344 350 314 193 12 40 331 137 199 213 100 124 179 299 180 191 184 191 179 160 165 230 211 253 308 231 243 193 138 129 162 212 70 75
359 36 32 355 356 352 67 85 213 328 298 321 327 314 330 358 133 57 81 201 187 173 188 175 255 275 171 140 135 183 176 155 102 21 60 248 300 276 179 206 198 199 192 194 168
352 349 13 353 357 38 74 229 218 334 320 328 289 29 312 323 8 49 216 227 160 133 161 217 279 215 154 106 41 135 150 86 16 187 252 271 260 233 210 212 207 202 197 204 204
7 24 355 357 27 48 137 253 305 353 19 339 299 282 242 236 217 236 256 292 123 78 119 129 127 281 193 197 172 128 125 55 116 137 194 234 249 221 204 187 198 209 196 198 209
1 359 357 356 43 35 47 316 295 336 350 335 334 352 298 316 256 229 216 221 293 188 204 139 153 203 209 288 284 145 170 148 135 220 192 162 268 309 204 188 186 203 196 199 200
4 281 354 7 64 358 325 314 301 4 5 349 310 28 349 286 283 235 259 328 18 132 174 181 278 15 341 354 348 219 172 112 105 85 188 160 259 180 182 206 223 213 199 197 197
27 356 338 31 34 53 2 294 321 6 148 349 322 37 1 327 224 272 289 4 333 3 30 133 176 171 197 206 157 184 198 162 133 135 186 215 239 247 219 216 215 219 203 199 191
22 42 150 326 356 354 309 316 337 353 348 8 84 38 348 288 316 308 12 339 341 2 21 124 223 196 233 227 202 215 188 174 191 196 193 229 221 192 220 216 221 211 188 198 195
45 18 352 301 309 344 353 24 21 349 326 339 32 337 331 284 76 301 5 290 262 333 19 355 264 181 262 229 222 245 218 194 207 196 258 269 263 218 232 198 196 198 188 204 196
26 31 89 319 350 6 28 353 346 355 283 337 346 318 302 336 317 280 258 244 254 287 302 277 134 86 257 226 213 276 211 201 203 192 192 225 240 175 230 222 227 195 194 196 187
Height
799 796 794 792 791 790 789 789 789 789 789 789 789 789 789 789 788 787 785 779 778 781 782 784 786 788 788 791 792 798 832 840 818 816 807 797 800 783 775 779 777 777 779 779 784
799 796 793 791 790 789 788 787 787 787 787 788 788 788 788 787 786 783 776 776 778 781 783 784 788 788 796 795 798 811 836 829 807 800 801 799 797 791 785 783 780 779 778 781 783
799 796 793 791 789 788 787 786 786 786 786 787 787 787 787 786 787 775 773 775 778 781 783 784 786 788 796 796 800 809 822 811 800 798 796 795 794 785 786 791 780 781 782 782 783
800 797 794 791 788 786 785 785 784 784 785 786 786 786 786 786 794 773 773 776 778 781 783 785 788 796 804 804 800 808 802 803 795 791 792 794 787 787 788 779 768 771 774 779 782
802 798 794 791 788 786 785 784 783 783 784 784 785 785 785 786 781 773 772 776 779 781 784 787 792 797 805 803 801 805 799 798 792 793 793 791 790 788 784 772 770 772 777 778 780
802 799 795 791 788 786 784 783 783 782 782 783 784 784 785 789 775 774 774 776 779 782 785 786 790 792 798 800 803 799 798 797 792 790 788 789 786 781 776 772 773 773 775 775 776
803 799 795 792 789 787 785 783 782 782 782 783 784 784 785 781 774 774 776 777 779 782 785 786 787 790 794 800 794 796 803 799 792 789 789 788 794 792 779 776 778 777 774 773 775
803 799 794 791 789 787 785 784 783 782 782 783 784 784 783 773 772 773 775 778 780 782 784 785 787 789 792 793 801 805 810 823 800 794 790 792 813 786 783 780 780 779 780 778 777
803 798 793 790 787 786 785 784 783 783 783 783 784 784 782 772 772 772 774 776 779 782 784 785 786 795 797 812 825 827 830 822 816 797 794 796 805 789 790 787 788 786 781 777 775
801 796 791 788 785 784 784 784 784 784 784 784 785 788 774 771 768 769 773 777 778 781 786 787 799 809 817 823 844 828 828 825 825 804 803 805 803 798 798 797 796 790 784 779 778
800 794 789 785 784 783 783 784 787 788 785 778 776 776 771 767 767 769 771 776 777 783 798 795 811 820 812 811 813 815 821 825 814 802 803 806 805 815 804 796 799 796 791 785 783
797 791 786 783 782 782 783 784 786 786 788 769 770 770 767 767 773 768 771 779 784 798 793 807 816 802 800 806 811 817 821 825 812 801 804 804 805 813 811 811 810 807 798 793 789
795 788 783 780 780 782 782 783 782 781 789 772 766 766 764 767 773 770 768 776 786 798 800 812 800 793 798 805 811 818 821 818 817 807 800 802 813 815 812 815 812 807 806 798 795
793 785 780 779 783 781 782 782 780 779 809 783 769 760 759 761 769 759 762 771 785 796 803 804 791 794 799 805 808 817 803 802 807 818 830 806 840 815 822 817 820 816 811 809 804
791 783 780 779 780 781 783 780 778 779 827 766 762 753 756 762 759 762 758 766 785 788 794 800 791 796 800 798 796 807 789 799 800 814 819 819 837 823 825 820 823 821 818 816 812
790 783 781 781 781 783 780 778 779 813 820 772 758 763 767 760 757 758 762 762 769 784 784 788 779 783 786 781 788 784 794 809 820 828 840 820 831 834 830 827 825 824 822 820 817
789 785 783 783 784 781 778 779 816 824 777 780 773 764 766 768 763 762 772 779 791 806 805 791 787 777 774 787 786 796 814 839 841 843 843 825 835 825 822 823 824 825 825 824 821
788 786 786 785 783 780 779 798 817 797 788 773 772 770 775 772 774 772 776 786 776 784 809 810 811 784 773 782 793 798 808 835 842 848 837 826 831 825 820 822 824 825 826 826 823
788 787 788 786 782 781 791 819 813 799 793 788 780 781 779 775 774 774 779 783 776 779 797 811 804 774 770 772 778 797 811 809 838 848 847 835 827 824 823 823 822 825 825 825 823
793 791 790 786 783 783 804 813 801 790 790 784 792 785 790 786 782 782 783 771 774 771 774 783 800 776 776 773 785 786 799 819 835 842 860 840 832 823 822 820 821 822 824 823 821
797 797 792 786 784 796 814 813 800 789 791 793 789 789 786 787 785 789 783 775 770 771 771 779 793 792 779 785 793 799 808 822 826 836 838 838 832 805 803 807 811 813 816 819 818
808 809 794 786 803 821 817 815 804 797 792 792 790 790 789 786 788 788 786 775 768 766 776 780 799 804 792 783 783 784 795 806 829 828 842 842 830 797 799 801 804 807 810 814 817
826 821 799 792 822 829 823 814 806 804 804 800 798 795 790 791 795 788 781 770 773 769 776 781 803 815 805 797 785 787 796 807 818 827 836 840 824 798 800 802 804 806 808 811 813
829 830 819 817 832 831 834 822 815 807 806 809 805 802 804 799 792 791 784 778 778 777 773 775 799 802 814 797 792 793 794 802 805 826 821 820 803 798 800 800 801 802 802 805 808
840 851 852 847 838 841 836 830 825 824 817 815 811 820 820 817 805 797 799 794 783 783 782 786 795 798 791 784 784 782 783 798 800 796 799 788 797 794 789 789 788 792 799 802 805
856 861 856 854 850 842 839 842 837 835 831 822 827 826 822 822 821 823 816 806 801 790 791 796 795 794 788 782 783 783 778 784 784 785 790 790 791 780 776 781 785 786 791 795 799
860 861 861 856 855 849 850 849 843 842 833 828 833 829 823 820 821 818 814 810 804 803 799 797 800 802 796 781 782 790 778 779 776 776 776 788 773 777 779 780 779 782 784 787 791